contact: severine.martini@mio.osupytheas.fr, dominique.lefevre@mio.osupytheas.fr
Project:EMSO Ligure-ouest http://www.emso-fr.org/EMSO-France
Sensor Optode, line 4330 Serial 272 
DOI : "https://doi.org/10.17882/97948" 
Title:EMSO Ligure Ouest : Data BathyDock capteur Optode - deploiement "2023-04-28"
Datetime,Profondeur,Latitude,Longitude,optode_type,serial,O2_concentration,O2_saturation,Temperature,Calibrated_Phase,Temp_Compensated_Phase,phase_blue_light,phase_red_light,Amplitude_blue_light,Amplitude_red_light,thermistor_bridge
time,m,degree_north,degree_east,1,1,umol.l-1,%,degree_C,degree,degree,degree,degree,mV,mV,mV
2023-11-20T00:00:08,2420,42.8014,5.9826,4330,272,186.365,57.089,13.318,36.042,36.622,41.219,4.597,295.5,544.1,291.0
2023-11-20T00:03:07,2420,42.8014,5.9826,4330,272,186.453,57.118,13.320,36.035,36.615,41.216,4.600,295.7,544.2,290.9
2023-11-20T00:06:07,2420,42.8014,5.9826,4330,272,186.259,57.055,13.317,36.050,36.630,41.225,4.596,295.7,544.2,291.0
2023-11-20T00:09:08,2420,42.8014,5.9826,4330,272,186.173,57.025,13.314,36.057,36.637,41.229,4.593,295.6,544.2,291.1
2023-11-20T00:12:07,2420,42.8014,5.9826,4330,272,186.342,57.075,13.313,36.046,36.626,41.223,4.596,295.7,544.2,291.1
2023-11-20T00:15:07,2420,42.8014,5.9826,4330,272,186.442,57.113,13.319,36.036,36.617,41.211,4.595,295.6,544.2,290.9
2023-11-20T00:18:07,2420,42.8014,5.9826,4330,272,186.511,57.128,13.313,36.035,36.615,41.213,4.598,295.7,544.2,291.1
2023-11-20T00:21:08,2420,42.8014,5.9826,4330,272,186.468,57.116,13.315,36.037,36.617,41.215,4.597,295.7,544.2,291.1
2023-11-20T00:24:08,2420,42.8014,5.9826,4330,272,186.272,57.057,13.315,36.050,36.630,41.222,4.592,295.6,544.3,291.0
2023-11-20T00:27:07,2420,42.8014,5.9826,4330,272,186.720,57.194,13.316,36.020,36.601,41.200,4.599,295.7,544.1,291.0
2023-11-20T00:30:07,2420,42.8014,5.9826,4330,272,186.561,57.146,13.316,36.030,36.610,41.209,4.599,295.6,544.2,291.0
2023-11-20T00:33:08,2420,42.8014,5.9826,4330,272,186.348,57.083,13.317,36.044,36.624,41.217,4.593,295.6,544.2,291.0
2023-11-20T00:36:07,2420,42.8014,5.9826,4330,272,186.562,57.144,13.314,36.031,36.611,41.214,4.603,295.7,544.2,291.1
2023-11-20T00:39:07,2420,42.8014,5.9826,4330,272,186.497,57.121,13.312,36.037,36.617,41.214,4.597,295.6,544.3,291.2
2023-11-20T00:42:07,2420,42.8014,5.9826,4330,272,186.433,57.104,13.314,36.040,36.620,41.213,4.593,295.7,544.2,291.1
2023-11-20T00:45:08,2420,42.8014,5.9826,4330,272,186.550,57.139,13.313,36.033,36.613,41.212,4.599,295.6,544.3,291.1
2023-11-20T00:48:07,2420,42.8014,5.9826,4330,272,186.469,57.117,13.315,36.037,36.617,41.213,4.596,295.5,544.2,291.1
2023-11-20T00:51:07,2420,42.8014,5.9826,4330,272,186.522,57.136,13.318,36.032,36.612,41.211,4.599,295.7,544.2,291.0
2023-11-20T00:54:08,2420,42.8014,5.9826,4330,272,186.474,57.118,13.315,36.036,36.616,41.214,4.597,295.7,544.3,291.1
2023-11-20T00:57:07,2420,42.8014,5.9826,4330,272,186.245,57.045,13.312,36.053,36.632,41.230,4.598,295.6,544.2,291.1
2023-11-20T01:00:07,2420,42.8014,5.9826,4330,272,186.666,57.172,13.311,36.026,36.606,41.203,4.596,295.6,544.2,291.2
2023-11-20T01:03:07,2420,42.8014,5.9826,4330,272,186.426,57.100,13.312,36.041,36.621,41.216,4.595,295.6,544.2,291.1
2023-11-20T01:06:08,2420,42.8014,5.9826,4330,272,186.220,57.038,13.313,36.054,36.634,41.228,4.594,295.6,544.2,291.1
2023-11-20T01:09:07,2420,42.8014,5.9826,4330,272,186.354,57.079,13.313,36.045,36.625,41.221,4.596,295.6,544.2,291.1
2023-11-20T01:12:07,2420,42.8014,5.9826,4330,272,186.519,57.128,13.312,36.035,36.615,41.210,4.595,295.6,544.2,291.2
2023-11-20T01:15:08,2420,42.8014,5.9826,4330,272,186.666,57.175,13.314,36.025,36.605,41.200,4.594,295.6,544.2,291.1
2023-11-20T01:18:07,2420,42.8014,5.9826,4330,272,186.536,57.137,13.314,36.033,36.613,41.207,4.594,295.6,544.2,291.1
2023-11-20T01:21:07,2420,42.8014,5.9826,4330,272,186.446,57.107,13.313,36.040,36.620,41.210,4.590,295.5,544.2,291.1
2023-11-20T01:24:07,2420,42.8014,5.9826,4330,272,186.567,57.143,13.312,36.031,36.612,41.205,4.594,295.6,544.2,291.2
2023-11-20T01:27:08,2420,42.8014,5.9826,4330,272,186.716,57.190,13.313,36.022,36.602,41.198,4.596,295.5,544.2,291.1
2023-11-20T01:30:07,2420,42.8014,5.9826,4330,272,186.435,57.100,13.310,36.041,36.621,41.219,4.598,295.6,544.2,291.2
2023-11-20T01:33:07,2420,42.8014,5.9826,4330,272,186.521,57.129,13.312,36.035,36.615,41.217,4.602,295.6,544.2,291.2
2023-11-20T01:36:08,2420,42.8014,5.9826,4330,272,186.503,57.122,13.311,36.036,36.616,41.212,4.596,295.5,544.3,291.2
2023-11-20T01:39:08,2420,42.8014,5.9826,4330,272,186.508,57.126,13.313,36.035,36.615,41.210,4.595,295.5,544.2,291.1
2023-11-20T01:42:07,2420,42.8014,5.9826,4330,272,186.424,57.098,13.311,36.042,36.622,41.215,4.593,295.6,544.2,291.2
2023-11-20T01:45:07,2420,42.8014,5.9826,4330,272,186.561,57.138,13.310,36.034,36.614,41.207,4.594,295.6,544.2,291.2
2023-11-20T01:48:07,2420,42.8014,5.9826,4330,272,186.419,57.096,13.311,36.042,36.622,41.217,4.595,295.5,544.2,291.2
2023-11-20T01:51:08,2420,42.8014,5.9826,4330,272,186.684,57.180,13.313,36.024,36.604,41.196,4.592,295.5,544.2,291.1
2023-11-20T01:54:07,2420,42.8014,5.9826,4330,272,186.696,57.181,13.311,36.024,36.604,41.202,4.598,295.5,544.3,291.2
2023-11-20T01:57:08,2420,42.8014,5.9826,4330,272,186.664,57.169,13.309,36.027,36.607,41.203,4.596,295.5,544.3,291.3
2023-11-20T02:00:08,2420,42.8014,5.9826,4330,272,186.631,57.161,13.311,36.028,36.608,41.203,4.595,295.6,544.3,291.2
2023-11-20T02:03:07,2420,42.8014,5.9826,4330,272,186.513,57.124,13.310,36.036,36.616,41.214,4.597,295.5,544.2,291.2
2023-11-20T02:06:07,2420,42.8014,5.9826,4330,272,186.744,57.194,13.310,36.021,36.602,41.196,4.594,295.5,544.2,291.2
2023-11-20T02:09:08,2420,42.8014,5.9826,4330,272,186.644,57.166,13.312,36.027,36.608,41.206,4.599,295.6,544.2,291.2
2023-11-20T02:12:07,2420,42.8014,5.9826,4330,272,186.423,57.096,13.310,36.042,36.622,41.215,4.592,295.6,544.2,291.2
2023-11-20T02:15:07,2420,42.8014,5.9826,4330,272,186.461,57.114,13.314,36.038,36.618,41.211,4.593,295.5,544.2,291.1
2023-11-20T02:18:07,2420,42.8014,5.9826,4330,272,186.527,57.129,13.311,36.035,36.615,41.216,4.601,295.5,544.2,291.2
2023-11-20T02:21:08,2420,42.8014,5.9826,4330,272,186.588,57.147,13.310,36.031,36.611,41.205,4.593,295.5,544.2,291.2
2023-11-20T02:24:07,2420,42.8014,5.9826,4330,272,186.448,57.103,13.309,36.041,36.621,41.211,4.590,295.5,544.2,291.3
2023-11-20T02:27:07,2420,42.8014,5.9826,4330,272,186.671,57.169,13.308,36.027,36.607,41.201,4.594,295.5,544.2,291.3
2023-11-20T02:30:07,2420,42.8014,5.9826,4330,272,186.772,57.201,13.308,36.020,36.600,41.200,4.600,295.5,544.2,291.3
2023-11-20T02:33:07,2420,42.8014,5.9826,4330,272,186.505,57.121,13.309,36.037,36.618,41.215,4.598,295.6,544.3,291.2
2023-11-20T02:36:07,2420,42.8014,5.9826,4330,272,186.554,57.134,13.308,36.034,36.614,41.212,4.597,295.6,544.3,291.3
2023-11-20T02:39:08,2420,42.8014,5.9826,4330,272,186.740,57.192,13.309,36.022,36.602,41.201,4.598,295.5,544.2,291.3
2023-11-20T02:42:07,2420,42.8014,5.9826,4330,272,186.759,57.197,13.308,36.022,36.602,41.201,4.599,295.6,544.2,291.3
2023-11-20T02:45:07,2420,42.8014,5.9826,4330,272,186.739,57.189,13.307,36.023,36.603,41.201,4.598,295.5,544.2,291.3
2023-11-20T02:48:08,2420,42.8014,5.9826,4330,272,186.533,57.130,13.310,36.035,36.615,41.207,4.592,295.5,544.2,291.2
2023-11-20T02:51:07,2420,42.8014,5.9826,4330,272,186.662,57.168,13.309,36.027,36.608,41.201,4.594,295.6,544.2,291.3
2023-11-20T02:54:07,2420,42.8014,5.9826,4330,272,186.850,57.225,13.308,36.015,36.595,41.193,4.598,295.6,544.1,291.3
2023-11-20T02:57:07,2420,42.8014,5.9826,4330,272,186.605,57.150,13.309,36.031,36.611,41.206,4.595,295.6,544.2,291.3
2023-11-20T03:00:08,2420,42.8014,5.9826,4330,272,186.777,57.202,13.308,36.020,36.600,41.198,4.598,295.6,544.2,291.3
2023-11-20T03:03:07,2420,42.8014,5.9826,4330,272,186.601,57.150,13.309,36.031,36.611,41.209,4.598,295.6,544.2,291.2
2023-11-20T03:06:07,2420,42.8014,5.9826,4330,272,186.492,57.127,13.318,36.034,36.614,41.210,4.596,295.6,544.2,291.0
2023-11-20T03:09:08,2420,42.8014,5.9826,4330,272,186.694,57.177,13.309,36.026,36.606,41.199,4.593,295.5,544.2,291.3
2023-11-20T03:12:07,2420,42.8014,5.9826,4330,272,186.670,57.172,13.310,36.026,36.606,41.202,4.596,295.6,544.3,291.2
2023-11-20T03:15:07,2420,42.8014,5.9826,4330,272,186.588,57.146,13.309,36.032,36.612,41.207,4.595,295.6,544.2,291.3
2023-11-20T03:18:07,2420,42.8014,5.9826,4330,272,186.764,57.199,13.309,36.020,36.600,41.195,4.595,295.5,544.2,291.3
2023-11-20T03:21:08,2420,42.8014,5.9826,4330,272,186.440,57.101,13.310,36.042,36.622,41.214,4.593,295.6,544.2,291.2
2023-11-20T03:24:08,2420,42.8014,5.9826,4330,272,186.625,57.157,13.309,36.029,36.610,41.205,4.595,295.6,544.3,291.3
2023-11-20T03:27:07,2420,42.8014,5.9826,4330,272,186.615,57.152,13.308,36.031,36.611,41.204,4.593,295.5,544.3,291.3
2023-11-20T03:30:07,2420,42.8014,5.9826,4330,272,186.661,57.167,13.308,36.028,36.608,41.200,4.592,295.5,544.3,291.3
2023-11-20T03:33:08,2420,42.8014,5.9826,4330,272,186.674,57.171,13.308,36.027,36.607,41.197,4.590,295.5,544.3,291.3
2023-11-20T03:36:07,2420,42.8014,5.9826,4330,272,186.888,57.240,13.311,36.011,36.591,41.185,4.593,295.5,544.3,291.2
2023-11-20T03:39:07,2420,42.8014,5.9826,4330,272,186.630,57.166,13.315,36.027,36.607,41.199,4.592,295.6,544.2,291.1
2023-11-20T03:42:07,2420,42.8014,5.9826,4330,272,186.612,57.154,13.310,36.030,36.610,41.200,4.590,295.6,544.3,291.2
2023-11-20T03:45:08,2420,42.8014,5.9826,4330,272,186.652,57.163,13.307,36.029,36.609,41.202,4.593,295.5,544.2,291.3
2023-11-20T03:48:07,2420,42.8014,5.9826,4330,272,186.423,57.094,13.308,36.044,36.624,41.208,4.585,295.5,544.2,291.3
2023-11-20T03:51:07,2420,42.8014,5.9826,4330,272,186.759,57.196,13.308,36.021,36.601,41.198,4.597,295.5,544.2,291.3
2023-11-20T03:54:07,2420,42.8014,5.9826,4330,272,186.679,57.174,13.309,36.025,36.606,41.203,4.597,295.5,544.2,291.2
2023-11-20T03:57:08,2420,42.8014,5.9826,4330,272,186.716,57.182,13.307,36.024,36.604,41.203,4.599,295.5,544.2,291.3
2023-11-20T04:00:07,2420,42.8014,5.9826,4330,272,186.745,57.190,13.306,36.023,36.603,41.201,4.598,295.6,544.3,291.3
2023-11-20T04:03:07,2420,42.8014,5.9826,4330,272,186.743,57.191,13.307,36.023,36.603,41.205,4.602,295.4,544.3,291.3
2023-11-20T04:06:08,2420,42.8014,5.9826,4330,272,186.741,57.190,13.307,36.023,36.603,41.193,4.590,295.5,544.3,291.3
2023-11-20T04:09:07,2420,42.8014,5.9826,4330,272,186.544,57.131,13.308,36.035,36.615,41.209,4.594,295.5,544.3,291.3
2023-11-20T04:12:07,2420,42.8014,5.9826,4330,272,186.664,57.167,13.308,36.028,36.608,41.209,4.601,295.5,544.3,291.3
2023-11-20T04:15:08,2420,42.8014,5.9826,4330,272,186.760,57.195,13.307,36.022,36.602,41.196,4.594,295.5,544.2,291.3
2023-11-20T04:18:07,2420,42.8014,5.9826,4330,272,186.724,57.185,13.308,36.023,36.604,41.200,4.596,295.5,544.3,291.3
2023-11-20T04:21:07,2420,42.8014,5.9826,4330,272,186.707,57.181,13.308,36.024,36.604,41.198,4.593,295.5,544.2,291.3
2023-11-20T04:24:07,2420,42.8014,5.9826,4330,272,186.701,57.179,13.308,36.025,36.606,41.204,4.598,295.5,544.3,291.3
2023-11-20T04:27:07,2420,42.8014,5.9826,4330,272,186.737,57.191,13.309,36.023,36.603,41.193,4.591,295.5,544.3,291.3
2023-11-20T04:30:08,2420,42.8014,5.9826,4330,272,186.670,57.170,13.308,36.026,36.607,41.204,4.597,295.6,544.2,291.3
2023-11-20T04:33:07,2420,42.8014,5.9826,4330,272,186.585,57.145,13.310,36.032,36.612,41.205,4.593,295.6,544.3,291.2
2023-11-20T04:36:07,2420,42.8014,5.9826,4330,272,186.637,57.164,13.312,36.027,36.607,41.200,4.593,295.6,544.3,291.2
2023-11-20T04:39:08,2420,42.8014,5.9826,4330,272,186.523,57.122,13.306,36.038,36.618,41.215,4.597,295.5,544.3,291.3
2023-11-20T04:42:07,2420,42.8014,5.9826,4330,272,186.398,57.085,13.307,36.045,36.625,41.217,4.592,295.5,544.3,291.3
2023-11-20T04:45:07,2420,42.8014,5.9826,4330,272,186.586,57.142,13.307,36.033,36.613,41.202,4.589,295.5,544.2,291.3
2023-11-20T04:48:07,2420,42.8014,5.9826,4330,272,186.933,57.252,13.309,36.009,36.589,41.183,4.594,295.5,544.2,291.2
2023-11-20T04:51:08,2420,42.8014,5.9826,4330,272,186.532,57.128,13.309,36.036,36.616,41.209,4.593,295.5,544.2,291.3
2023-11-20T04:54:07,2420,42.8014,5.9826,4330,272,186.646,57.163,13.309,36.028,36.608,41.199,4.591,295.5,544.2,291.3
2023-11-20T04:57:07,2420,42.8014,5.9826,4330,272,186.612,57.149,13.306,36.032,36.612,41.209,4.597,295.6,544.3,291.4
2023-11-20T05:00:07,2420,42.8014,5.9826,4330,272,187.000,57.268,13.306,36.007,36.587,41.184,4.597,295.6,544.3,291.4
2023-11-20T05:03:07,2420,42.8014,5.9826,4330,272,186.573,57.136,13.305,36.035,36.615,41.206,4.591,295.5,544.2,291.4
2023-11-20T05:06:08,2420,42.8014,5.9826,4330,272,186.516,57.123,13.309,36.037,36.617,41.209,4.593,295.6,544.3,291.3
2023-11-20T05:09:07,2420,42.8014,5.9826,4330,272,186.599,57.147,13.307,36.032,36.612,41.211,4.599,295.5,544.2,291.3
2023-11-20T05:12:07,2420,42.8014,5.9826,4330,272,186.713,57.179,13.305,36.025,36.605,41.200,4.595,295.5,544.3,291.4
2023-11-20T05:15:08,2420,42.8014,5.9826,4330,272,186.763,57.196,13.307,36.021,36.601,41.192,4.591,295.5,544.2,291.3
2023-11-20T05:18:07,2420,42.8014,5.9826,4330,272,186.640,57.162,13.310,36.029,36.609,41.199,4.591,295.5,544.2,291.2
2023-11-20T05:21:07,2420,42.8014,5.9826,4330,272,186.675,57.171,13.308,36.026,36.607,41.195,4.588,295.5,544.3,291.3
2023-11-20T05:24:07,2420,42.8014,5.9826,4330,272,186.876,57.233,13.308,36.014,36.594,41.189,4.595,295.6,544.3,291.3
2023-11-20T05:27:08,2420,42.8014,5.9826,4330,272,186.789,57.208,13.310,36.019,36.599,41.186,4.587,295.6,544.2,291.2
2023-11-20T05:30:07,2420,42.8014,5.9826,4330,272,186.648,57.166,13.311,36.028,36.608,41.198,4.591,295.5,544.2,291.2
2023-11-20T05:33:07,2420,42.8014,5.9826,4330,272,186.776,57.202,13.308,36.020,36.600,41.189,4.589,295.5,544.2,291.3
2023-11-20T05:36:08,2420,42.8014,5.9826,4330,272,186.822,57.212,13.305,36.019,36.599,41.193,4.594,295.5,544.2,291.4
2023-11-20T05:39:08,2420,42.8014,5.9826,4330,272,186.974,57.260,13.306,36.008,36.588,41.184,4.596,295.5,544.3,291.4
2023-11-20T05:42:07,2420,42.8014,5.9826,4330,272,186.960,57.256,13.307,36.009,36.590,41.188,4.598,295.5,544.2,291.3
2023-11-20T05:45:07,2420,42.8014,5.9826,4330,272,186.928,57.244,13.305,36.012,36.592,41.185,4.593,295.6,544.3,291.4
2023-11-20T05:48:07,2420,42.8014,5.9826,4330,272,186.600,57.145,13.306,36.032,36.612,41.206,4.593,295.5,544.3,291.4
2023-11-20T05:51:08,2420,42.8014,5.9826,4330,272,186.988,57.263,13.305,36.008,36.588,41.190,4.601,295.5,544.3,291.4
2023-11-20T05:54:07,2420,42.8014,5.9826,4330,272,186.669,57.166,13.306,36.028,36.609,41.200,4.591,295.5,544.3,291.4
2023-11-20T05:57:07,2420,42.8014,5.9826,4330,272,186.722,57.182,13.306,36.024,36.604,41.201,4.596,295.5,544.2,291.4
2023-11-20T06:00:07,2420,42.8014,5.9826,4330,272,186.711,57.180,13.307,36.025,36.605,41.199,4.593,295.5,544.3,291.3
2023-11-20T06:03:07,2420,42.8014,5.9826,4330,272,186.632,57.155,13.306,36.030,36.610,41.200,4.590,295.5,544.2,291.4
2023-11-20T06:06:07,2420,42.8014,5.9826,4330,272,186.625,57.155,13.308,36.030,36.610,41.203,4.593,295.6,544.2,291.3
2023-11-20T06:09:07,2420,42.8014,5.9826,4330,272,186.750,57.196,13.310,36.021,36.601,41.193,4.592,295.5,544.3,291.2
2023-11-20T06:12:08,2420,42.8014,5.9826,4330,272,186.988,57.263,13.305,36.008,36.588,41.181,4.593,295.6,544.3,291.4
2023-11-20T06:15:07,2420,42.8014,5.9826,4330,272,186.575,57.141,13.309,36.033,36.613,41.205,4.592,295.5,544.2,291.3
2023-11-20T06:18:07,2420,42.8014,5.9826,4330,272,186.543,57.127,13.305,36.037,36.617,41.212,4.595,295.5,544.2,291.4
2023-11-20T06:21:08,2420,42.8014,5.9826,4330,272,186.640,57.158,13.306,36.030,36.610,41.205,4.595,295.5,544.2,291.3
2023-11-20T06:24:07,2420,42.8014,5.9826,4330,272,186.600,57.146,13.307,36.032,36.612,41.207,4.595,295.5,544.2,291.3
2023-11-20T06:27:07,2420,42.8014,5.9826,4330,272,186.911,57.243,13.308,36.011,36.591,41.192,4.601,295.5,544.3,291.3
2023-11-20T06:30:07,2420,42.8014,5.9826,4330,272,186.943,57.250,13.306,36.011,36.591,41.185,4.594,295.6,544.3,291.4
2023-11-20T06:33:07,2420,42.8014,5.9826,4330,272,186.820,57.213,13.306,36.019,36.599,41.198,4.599,295.5,544.2,291.4
2023-11-20T06:36:08,2420,42.8014,5.9826,4330,272,186.746,57.191,13.307,36.023,36.603,41.200,4.597,295.6,544.3,291.3
2023-11-20T06:39:08,2420,42.8014,5.9826,4330,272,186.709,57.178,13.305,36.026,36.606,41.205,4.599,295.6,544.3,291.4
2023-11-20T06:42:07,2420,42.8014,5.9826,4330,272,186.869,57.228,13.306,36.015,36.595,41.196,4.601,295.5,544.3,291.4
2023-11-20T06:45:07,2420,42.8014,5.9826,4330,272,186.966,57.257,13.305,36.009,36.589,41.182,4.593,295.4,544.2,291.4
2023-11-20T06:48:07,2420,42.8014,5.9826,4330,272,186.718,57.180,13.305,36.026,36.606,41.195,4.589,295.5,544.3,291.4
2023-11-20T06:51:08,2420,42.8014,5.9826,4330,272,186.653,57.162,13.306,36.029,36.609,41.205,4.596,295.6,544.4,291.3
2023-11-20T06:54:07,2420,42.8014,5.9826,4330,272,186.770,57.200,13.308,36.021,36.601,41.198,4.597,295.6,544.3,291.3
2023-11-20T06:57:07,2420,42.8014,5.9826,4330,272,186.710,57.182,13.308,36.025,36.605,41.195,4.591,295.5,544.3,291.3
2023-11-20T07:00:08,2420,42.8014,5.9826,4330,272,186.726,57.187,13.308,36.024,36.604,41.199,4.595,295.5,544.2,291.3
2023-11-20T07:03:08,2420,42.8014,5.9826,4330,272,186.800,57.209,13.308,36.018,36.598,41.188,4.590,295.5,544.2,291.3
2023-11-20T07:06:08,2420,42.8014,5.9826,4330,272,186.824,57.217,13.308,36.017,36.597,41.194,4.597,295.5,544.2,291.3
2023-11-20T07:09:07,2420,42.8014,5.9826,4330,272,186.620,57.154,13.308,36.031,36.611,41.204,4.593,295.5,544.2,291.3
2023-11-20T07:12:07,2420,42.8014,5.9826,4330,272,186.641,57.158,13.306,36.030,36.610,41.203,4.592,295.6,544.2,291.4
2023-11-20T07:15:08,2420,42.8014,5.9826,4330,272,186.802,57.210,13.308,36.019,36.599,41.190,4.591,295.5,544.3,291.3
2023-11-20T07:18:07,2420,42.8014,5.9826,4330,272,186.503,57.118,13.308,36.038,36.618,41.212,4.594,295.5,544.2,291.3
2023-11-20T07:21:07,2420,42.8014,5.9826,4330,272,186.828,57.215,13.306,36.018,36.598,41.189,4.591,295.6,544.2,291.4
2023-11-20T07:24:08,2420,42.8014,5.9826,4330,272,186.919,57.244,13.307,36.012,36.592,41.188,4.596,295.5,544.3,291.3
2023-11-20T07:27:07,2420,42.8014,5.9826,4330,272,186.900,57.238,13.307,36.013,36.593,41.187,4.594,295.6,544.2,291.3
2023-11-20T07:30:07,2420,42.8014,5.9826,4330,272,186.712,57.181,13.307,36.025,36.605,41.197,4.592,295.5,544.2,291.3
2023-11-20T07:33:08,2420,42.8014,5.9826,4330,272,186.533,57.125,13.306,36.037,36.617,41.208,4.591,295.6,544.3,291.4
2023-11-20T07:36:07,2420,42.8014,5.9826,4330,272,186.742,57.188,13.305,36.024,36.604,41.195,4.591,295.5,544.2,291.4
2023-11-20T07:39:07,2420,42.8014,5.9826,4330,272,186.694,57.172,13.305,36.027,36.607,41.205,4.598,295.5,544.2,291.4
2023-11-20T07:42:08,2420,42.8014,5.9826,4330,272,186.710,57.180,13.307,36.025,36.606,41.195,4.589,295.6,544.2,291.3
2023-11-20T07:45:07,2420,42.8014,5.9826,4330,272,186.567,57.138,13.308,36.034,36.614,41.201,4.587,295.5,544.2,291.3
2023-11-20T07:48:07,2420,42.8014,5.9826,4330,272,186.579,57.141,13.308,36.033,36.613,41.210,4.597,295.5,544.2,291.3
2023-11-20T07:51:07,2420,42.8014,5.9826,4330,272,186.916,57.244,13.307,36.011,36.592,41.190,4.599,295.5,544.3,291.3
2023-11-20T07:54:08,2420,42.8014,5.9826,4330,272,186.745,57.191,13.307,36.023,36.603,41.196,4.593,295.6,544.2,291.3
2023-11-20T07:57:07,2420,42.8014,5.9826,4330,272,186.766,57.198,13.307,36.021,36.601,41.194,4.593,295.5,544.2,291.3
2023-11-20T08:00:08,2420,42.8014,5.9826,4330,272,186.694,57.177,13.308,36.025,36.606,41.200,4.594,295.5,544.2,291.3
2023-11-20T08:03:07,2420,42.8014,5.9826,4330,272,186.810,57.208,13.304,36.020,36.600,41.197,4.597,295.5,544.2,291.4
2023-11-20T08:06:08,2420,42.8014,5.9826,4330,272,186.431,57.092,13.304,36.044,36.624,41.210,4.585,295.5,544.2,291.4
2023-11-20T08:09:07,2420,42.8014,5.9826,4330,272,186.865,57.226,13.305,36.016,36.596,41.187,4.591,295.5,544.3,291.4
2023-11-20T08:12:07,2420,42.8014,5.9826,4330,272,186.875,57.230,13.306,36.014,36.595,41.189,4.594,295.5,544.2,291.4
2023-11-20T08:15:08,2420,42.8014,5.9826,4330,272,186.674,57.167,13.305,36.028,36.608,41.204,4.596,295.5,544.2,291.4
2023-11-20T08:18:07,2420,42.8014,5.9826,4330,272,186.788,57.202,13.305,36.020,36.601,41.196,4.595,295.6,544.2,291.4
2023-11-20T08:21:07,2420,42.8014,5.9826,4330,272,186.729,57.187,13.308,36.023,36.603,41.200,4.596,295.5,544.2,291.3
2023-11-20T08:24:07,2420,42.8014,5.9826,4330,272,187.014,57.273,13.306,36.005,36.586,41.180,4.594,295.5,544.3,291.3
2023-11-20T08:27:08,2420,42.8014,5.9826,4330,272,186.761,57.196,13.307,36.021,36.601,41.192,4.591,295.5,544.2,291.3
2023-11-20T08:30:07,2420,42.8014,5.9826,4330,272,186.747,57.188,13.305,36.024,36.604,41.199,4.595,295.5,544.3,291.4
2023-11-20T08:33:07,2420,42.8014,5.9826,4330,272,186.971,57.258,13.305,36.009,36.589,41.182,4.593,295.4,544.2,291.4
2023-11-20T08:36:08,2420,42.8014,5.9826,4330,272,186.646,57.160,13.306,36.029,36.609,41.200,4.591,295.5,544.3,291.3
2023-11-20T08:39:07,2420,42.8014,5.9826,4330,272,186.626,57.156,13.308,36.030,36.611,41.204,4.594,295.5,544.2,291.3
2023-11-20T08:42:07,2420,42.8014,5.9826,4330,272,186.594,57.147,13.309,36.031,36.611,41.205,4.594,295.6,544.2,291.3
2023-11-20T08:45:08,2420,42.8014,5.9826,4330,272,186.694,57.174,13.306,36.026,36.606,41.202,4.596,295.4,544.2,291.4
2023-11-20T08:48:07,2420,42.8014,5.9826,4330,272,186.723,57.182,13.305,36.025,36.605,41.196,4.592,295.5,544.3,291.4
2023-11-20T08:51:07,2420,42.8014,5.9826,4330,272,186.862,57.226,13.306,36.015,36.595,41.189,4.593,295.6,544.2,291.4
2023-11-20T08:54:07,2420,42.8014,5.9826,4330,272,186.814,57.211,13.306,36.019,36.599,41.190,4.591,295.4,544.2,291.4
2023-11-20T08:57:08,2420,42.8014,5.9826,4330,272,186.867,57.226,13.305,36.016,36.596,41.192,4.596,295.5,544.2,291.4
2023-11-20T09:00:07,2420,42.8014,5.9826,4330,272,186.604,57.149,13.308,36.031,36.611,41.203,4.591,295.6,544.3,291.3
2023-11-20T09:03:07,2420,42.8014,5.9826,4330,272,186.880,57.234,13.308,36.013,36.594,41.194,4.601,295.5,544.1,291.3
2023-11-20T09:06:08,2420,42.8014,5.9826,4330,272,186.768,57.201,13.309,36.020,36.600,41.197,4.597,295.5,544.2,291.2
2023-11-20T09:09:07,2420,42.8014,5.9826,4330,272,186.897,57.238,13.307,36.013,36.593,41.190,4.597,295.5,544.2,291.3
2023-11-20T09:12:07,2420,42.8014,5.9826,4330,272,186.736,57.189,13.308,36.023,36.603,41.199,4.596,295.6,544.2,291.3
2023-11-20T09:15:07,2420,42.8014,5.9826,4330,272,186.493,57.117,13.310,36.038,36.618,41.204,4.587,295.5,544.3,291.2
2023-11-20T09:18:08,2420,42.8014,5.9826,4330,272,186.633,57.158,13.308,36.029,36.610,41.200,4.590,295.5,544.1,291.3
2023-11-20T09:21:07,2420,42.8014,5.9826,4330,272,186.941,57.251,13.307,36.010,36.591,41.188,4.597,295.5,544.2,291.3
2023-11-20T09:24:07,2420,42.8014,5.9826,4330,272,186.769,57.200,13.309,36.021,36.601,41.193,4.592,295.6,544.3,291.3
2023-11-20T09:27:08,2420,42.8014,5.9826,4330,272,186.652,57.169,13.312,36.026,36.606,41.198,4.592,295.5,544.2,291.2
2023-11-20T09:30:07,2420,42.8014,5.9826,4330,272,186.820,57.221,13.313,36.015,36.596,41.194,4.599,295.6,544.2,291.1
2023-11-20T09:33:07,2420,42.8014,5.9826,4330,272,186.710,57.186,13.312,36.023,36.603,41.195,4.592,295.5,544.1,291.2
2023-11-20T09:36:08,2420,42.8014,5.9826,4330,272,186.932,57.261,13.317,36.006,36.586,41.179,4.593,295.6,544.2,291.0
2023-11-20T09:39:08,2420,42.8014,5.9826,4330,272,186.657,57.166,13.309,36.028,36.608,41.199,4.591,295.5,544.2,291.3
2023-11-20T09:42:07,2420,42.8014,5.9826,4330,272,186.745,57.193,13.309,36.022,36.602,41.193,4.590,295.5,544.3,291.3
2023-11-20T09:45:07,2420,42.8014,5.9826,4330,272,186.794,57.208,13.309,36.019,36.599,41.193,4.594,295.6,544.2,291.3
2023-11-20T09:48:07,2420,42.8014,5.9826,4330,272,186.517,57.127,13.311,36.035,36.615,41.209,4.594,295.5,544.2,291.2
2023-11-20T09:51:08,2420,42.8014,5.9826,4330,272,186.736,57.190,13.309,36.022,36.602,41.193,4.591,295.6,544.2,291.3
2023-11-20T09:54:07,2420,42.8014,5.9826,4330,272,186.633,57.159,13.309,36.029,36.609,41.200,4.591,295.6,544.2,291.3
2023-11-20T09:57:07,2420,42.8014,5.9826,4330,272,186.713,57.184,13.309,36.024,36.604,41.200,4.596,295.5,544.3,291.3
2023-11-20T10:00:08,2420,42.8014,5.9826,4330,272,186.387,57.086,13.310,36.044,36.624,41.217,4.593,295.6,544.2,291.2